[[{"header":{"parameterUnit":"m.s-1","parameterCategory":1,"la1":30.2991,"la2":30.254,"lo1":-89.0895,"lo2":-89.0444,"dy":0.0017,"dx":0.0017,"nx":28,"ny":28,"refTime":"2024-05-20T09:00:00:Z","depth":0,"parameterNumber":2,"parameterNumberName":"U-component_of_WINDS"},"data":[0,0,0,0,0,0,0,0,0,0,0,0,0,0,0,0,0,0,0,0,0,0,0,0,0,0,0,0,0,0,0,0,0,0,0,0,0,0,0,0,0,0,0,0,0,0,0,0,0,0,0,0,0,0,0,0,0,0,-1.4267,-1.4267,0,-1.4212,-1.4211,-1.421,-1.4165,-1.4164,-1.4164,-1.4163,-1.4105,-1.4104,-1.4103,0,0,0,0,0,0,0,0,0,0,0,0,0,-1.4334,-1.4333,-1.4267,-1.4267,-1.4266,-1.4212,-1.4211,-1.421,-1.4165,-1.4164,-1.4163,-1.4163,-1.4105,-1.4104,-1.4103,0,0,0,0,0,0,0,0,0,0,0,0,0,-1.4294,-1.4332,-1.4267,-1.4237,-1.4233,-1.4212,-1.4211,-1.421,-1.4165,-1.4164,-1.4163,-1.4163,-1.4106,-1.4104,-1.4102,-1.4107,0,0,-1.4097,-1.4097,0,0,0,0,0,0,0,0,-1.4296,-1.4292,-1.4242,-1.4239,-1.4235,-1.4194,-1.4213,-1.4175,-1.4165,-1.4191,-1.4163,-1.4162,-1.4135,-1.4131,-1.4122,-1.4104,-1.4101,-1.4097,-1.4096,-1.4096,-1.4095,0,0,0,0,0,0,0,-1.4299,-1.4294,-1.4245,-1.4241,-1.4237,-1.4225,-1.4219,-1.4206,-1.4168,-1.4188,-1.4185,-1.4179,-1.4133,-1.4124,-1.412,-1.41,-1.4097,-1.4096,-1.4095,-1.4094,-1.4083,-1.4083,0,0,0,0,0,0,-1.4307,-1.4296,-1.4247,-1.4244,-1.4265,-1.4225,-1.4218,-1.4208,-1.4168,-1.4161,-1.418,-1.4177,-1.4127,-1.4122,-1.4118,-1.412,-1.4096,-1.4094,-1.4093,-1.4082,-1.4083,-1.4084,0,0,0,0,0,0,-1.4308,-1.4303,-1.4249,-1.4269,-1.4261,-1.4224,-1.4214,-1.4207,-1.4198,-1.4161,-1.4154,-1.4177,-1.4126,-1.4121,-1.411,-1.4117,-1.4093,-1.4092,-1.4081,-1.4082,-1.4083,-1.4124,0,0,0,0,0,0,-1.431,-1.4304,-1.4305,-1.4269,-1.426,-1.4242,-1.4215,-1.4207,-1.4195,-1.4191,-1.4157,-1.415,-1.4125,-1.4113,-1.4108,-1.4115,-1.409,-1.408,-1.4082,-1.4083,-1.4122,-1.4127,-1.4131,0,0,0,0,0,-1.4313,-1.4318,-1.4305,-1.43,-1.4261,-1.4243,-1.4238,-1.4209,-1.4196,-1.4197,-1.4173,-1.4152,-1.4118,-1.4112,-1.4107,-1.4113,-1.408,-1.4081,-1.4083,-1.412,-1.4126,-1.413,0,0,0,0,0,0,-1.4355,-1.4313,-1.4298,-1.4292,-1.4272,-1.4235,-1.4235,-1.4216,-1.4198,-1.4195,-1.4159,-1.4152,-1.4145,-1.4128,-1.4122,-1.4115,-1.4096,-1.4096,-1.4126,-1.4131,-1.4135,-1.4139,-1.4089,0,0,0,0,0,-1.4364,-1.4353,-1.4316,-1.4315,-1.4305,-1.4272,-1.4263,-1.4243,-1.422,-1.421,-1.4186,-1.4164,-1.4148,-1.4139,-1.4122,-1.412,-1.4111,-1.4121,-1.4126,-1.4129,-1.413,-1.4127,-1.4131,-1.4089,-1.4089,-1.4089,0,0,-1.4382,-1.4357,-1.4352,-1.4323,-1.4304,-1.4293,-1.4265,-1.4254,-1.4246,-1.4209,-1.4197,-1.4179,-1.4152,-1.4145,-1.4141,-1.4131,-1.414,-1.4131,-1.4134,-1.4133,-1.4129,-1.4133,-1.4137,-1.409,-1.409,-1.4089,0,0,-1.4408,-1.4389,-1.4385,-1.4368,-1.434,-1.4318,-1.4318,-1.4284,-1.4271,-1.4259,-1.4231,-1.422,-1.4194,-1.4176,-1.4163,-1.4184,-1.4163,-1.418,-1.4201,-1.4199,-1.4203,-1.4205,-1.4212,-1.4215,-1.4181,-1.4181,-1.4181,0,-1.4433,-1.4416,-1.4386,-1.4377,-1.4365,-1.4332,-1.4328,-1.4312,-1.4281,-1.4273,-1.4262,-1.4228,-1.4208,-1.4197,-1.4202,-1.4193,-1.4191,-1.4183,-1.4205,-1.4207,-1.4209,-1.4216,-1.4218,-1.4183,-1.4183,-1.4183,-1.4182,0,-1.4448,-1.4437,-1.4437,-1.4408,-1.4396,-1.439,-1.4359,-1.435,-1.4331,-1.431,-1.4299,-1.4273,-1.4251,-1.4247,-1.4228,-1.4233,-1.4228,-1.4211,-1.4191,-1.4216,-1.4221,-1.4224,-1.4186,-1.4185,-1.4185,-1.4184,0,0,-1.4499,-1.4454,-1.4455,-1.4441,-1.4409,-1.4399,-1.4392,-1.4371,-1.4364,-1.4343,-1.4336,-1.4315,-1.43,-1.4285,-1.4264,-1.4263,-1.428,-1.4246,-1.4245,-1.4253,-1.4284,-1.4296,-1.43,-1.4267,-1.4267,-1.4267,-1.4286,0,-1.452,-1.4504,-1.4478,-1.4471,-1.446,-1.4428,-1.4422,-1.4401,-1.4382,-1.4369,-1.4347,-1.4333,-1.4314,-1.4305,-1.4302,-1.4279,-1.4286,-1.4277,-1.4259,-1.4259,-1.4266,-1.4303,-1.4316,-1.4335,-1.4288,-1.4289,-1.4289,0,-1.4542,-1.4524,-1.4517,-1.4485,-1.448,-1.4474,-1.4453,-1.4441,-1.4417,-1.4403,-1.4388,-1.4366,-1.4355,-1.4338,-1.4324,-1.4318,-1.4309,-1.4297,-1.4297,-1.4294,-1.4275,-1.43,-1.434,-1.4343,-1.4292,-1.4292,-1.4291,0,-1.458,-1.4554,-1.4546,-1.4535,-1.4499,-1.4496,-1.448,-1.4456,-1.4445,-1.4426,-1.4419,-1.4399,-1.4388,-1.4373,-1.4346,-1.4336,-1.4335,-1.4315,-1.4322,-1.4323,-1.4323,-1.4323,-1.4362,-1.4318,-1.4318,-1.4318,-1.4318,0,-1.4606,-1.4602,-1.4562,-1.4557,-1.4552,-1.4521,-1.4517,-1.4499,-1.4478,-1.4468,-1.444,-1.4432,-1.4396,-1.4384,-1.4362,-1.4354,-1.4349,-1.4337,-1.4331,-1.4339,-1.4341,-1.4333,-1.433,-1.4319,-1.4319,-1.4318,-1.4318,0,-1.4646,-1.462,-1.4609,-1.4575,-1.4567,-1.4565,-1.4536,-1.453,-1.4509,-1.4498,-1.4494,-1.4461,-1.4445,-1.4416,-1.4392,-1.4378,-1.4373,-1.4364,-1.4382,-1.4378,-1.4387,-1.4386,-1.4421,-1.4424,-1.4379,-1.438,-1.438,0,-1.4665,-1.4661,-1.4628,-1.462,-1.4606,-1.4593,-1.4582,-1.4552,-1.4542,-1.4514,-1.4512,-1.4494,-1.4478,-1.4454,-1.4427,-1.4409,-1.4398,-1.4412,-1.4395,-1.4403,-1.4398,-1.4398,-1.4398,-1.4415,-1.4416,-1.4416,-1.4417,0,-1.47,-1.4687,-1.4672,-1.4653,-1.4641,-1.4624,-1.4606,-1.4601,-1.4567,-1.4557,-1.454,-1.4528,-1.4504,-1.4486,-1.4464,-1.4447,-1.4426,-1.4422,-1.4423,-1.4431,-1.4441,-1.4436,-1.4391,-1.4421,-1.4421,-1.4421,-1.442,-1.442,-1.4729,-1.4725,-1.4701,-1.4686,-1.4669,-1.4653,-1.4646,-1.4625,-1.4611,-1.4589,-1.4572,-1.4557,-1.4533,-1.4501,-1.4486,-1.4473,-1.4464,-1.4465,-1.4465,-1.4465,-1.4469,-1.4444,-1.4469,-1.4469,-1.4469,-1.4469,-1.4469,0,-1.4763,-1.4746,-1.4732,-1.4708,-1.4696,-1.4678,-1.4658,-1.4649,-1.4636,-1.4616,-1.4601,-1.4582,-1.4565,-1.4538,-1.4519,-1.4514,-1.4504,-1.451,-1.451,-1.4506,-1.4479,-1.448,-1.4518,-1.4518,-1.4518,-1.4518,-1.4518,-1.4518,-1.4779,-1.477,-1.4755,-1.4738,-1.4721,-1.4706,-1.4696,-1.4681,-1.4665,-1.4645,-1.4631,-1.4614,-1.4591,-1.457,-1.4553,-1.4545,-1.4539,-1.4549,-1.4538,-1.4513,-1.4508,-1.4504,-1.4505,-1.4548,-1.4548,-1.4566,-1.4567,-1.4567]},{"header":{"parameterUnit":"m.s-1","parameterCategory":1,"la1":30.2991,"la2":30.254,"lo1":-89.0895,"lo2":-89.0444,"dy":0.0017,"dx":0.0017,"nx":28,"ny":28,"refTime":"2024-05-20T09:00:00:Z","depth":0,"parameterNumber":3,"parameterNumberName":"V-component_of_WINDS"},"data":[0,0,0,0,0,0,0,0,0,0,0,0,0,0,0,0,0,0,0,0,0,0,0,0,0,0,0,0,0,0,0,0,0,0,0,0,0,0,0,0,0,0,0,0,0,0,0,0,0,0,0,0,0,0,0,0,0,0,4.1154,4.1154,0,4.1096,4.1096,4.1095,4.099,4.0988,4.0986,4.0984,4.0926,4.0927,4.0927,0,0,0,0,0,0,0,0,0,0,0,0,0,4.1177,4.1177,4.1154,4.1154,4.1153,4.1096,4.1096,4.1095,4.0991,4.0988,4.0986,4.0983,4.0926,4.0927,4.0927,0,0,0,0,0,0,0,0,0,0,0,0,0,4.1148,4.1177,4.1154,4.1094,4.1088,4.1097,4.1096,4.1095,4.0991,4.0988,4.0985,4.0982,4.0926,4.0927,4.0927,4.099,0,0,4.0929,4.0929,0,0,0,0,0,0,0,0,4.115,4.1147,4.1104,4.1098,4.1091,4.1047,4.1082,4.106,4.0992,4.1028,4.0984,4.0981,4.0969,4.0966,4.0962,4.0988,4.0985,4.0929,4.0929,4.0929,4.0929,0,0,0,0,0,0,0,4.1152,4.1149,4.1131,4.1103,4.1096,4.107,4.1063,4.1077,4.1016,4.1025,4.1017,4.1011,4.0965,4.0962,4.096,4.0984,4.0929,4.0929,4.0929,4.093,4.106,4.1063,0,0,0,0,0,0,4.1162,4.1152,4.1133,4.113,4.1114,4.1073,4.1064,4.1065,4.1016,4.1005,4.1014,4.1007,4.0962,4.0959,4.0957,4.1028,4.0929,4.093,4.093,4.1057,4.1061,4.1064,0,0,0,0,0,0,4.1163,4.1162,4.1135,4.1138,4.1133,4.1075,4.1077,4.1065,4.1061,4.1008,4.0996,4.1021,4.096,4.0956,4.0983,4.1025,4.093,4.093,4.1053,4.1058,4.1063,4.1171,0,0,0,0,0,0,4.1164,4.1163,4.1186,4.114,4.1133,4.1162,4.1079,4.1066,4.1062,4.1052,4.1011,4.1002,4.0957,4.0983,4.0983,4.1023,4.0931,4.1049,4.1055,4.1061,4.1163,4.1178,4.1192,0,0,0,0,0,4.1166,4.1218,4.1187,4.1186,4.1161,4.1165,4.1161,4.1108,4.1066,4.1089,4.1055,4.1003,4.102,4.0986,4.0986,4.1027,4.1046,4.1054,4.1061,4.1157,4.1175,4.1191,0,0,0,0,0,0,4.1271,4.1211,4.1176,4.1215,4.1196,4.1147,4.1174,4.1129,4.1122,4.1112,4.1047,4.1039,4.1075,4.1053,4.1017,4.1086,4.1025,4.1033,4.1098,4.1116,4.113,4.1134,4.0931,0,0,0,0,0,4.1299,4.1306,4.1254,4.1294,4.1286,4.1232,4.1232,4.1193,4.117,4.1161,4.1129,4.1109,4.111,4.1112,4.111,4.116,4.115,4.1188,4.1203,4.1215,4.1222,4.1247,4.1264,4.1088,4.1088,4.1087,0,0,4.1356,4.1325,4.1333,4.1314,4.1294,4.1304,4.1226,4.1239,4.1246,4.1163,4.1186,4.1162,4.1136,4.1175,4.119,4.1158,4.1268,4.1224,4.1234,4.1234,4.1256,4.1273,4.1288,4.1093,4.1092,4.1091,0,0,4.1466,4.1443,4.1473,4.1455,4.1426,4.139,4.1398,4.1356,4.1337,4.1359,4.1297,4.1305,4.1308,4.1292,4.1284,4.139,4.1342,4.1391,4.1465,4.1491,4.1505,4.1517,4.1555,4.1569,4.1398,4.1399,4.1399,0,4.1541,4.1552,4.1495,4.1513,4.1506,4.1432,4.1463,4.1449,4.1421,4.1419,4.1384,4.1386,4.1363,4.1398,4.1424,4.142,4.1427,4.1395,4.1508,4.1519,4.1529,4.1564,4.1579,4.1405,4.1404,4.1403,4.1403,0,4.1646,4.1656,4.1684,4.1659,4.1656,4.1681,4.1628,4.1632,4.1594,4.1562,4.1586,4.1557,4.1547,4.1553,4.1516,4.1582,4.1564,4.1519,4.1456,4.1553,4.1585,4.1598,4.1413,4.1411,4.1409,4.1408,0,0,4.1819,4.1762,4.1774,4.1762,4.1725,4.1732,4.1754,4.1744,4.1749,4.1734,4.175,4.1755,4.1714,4.1706,4.1666,4.1689,4.1775,4.1642,4.164,4.1667,4.1847,4.188,4.1897,4.1744,4.1746,4.1748,4.1849,0,4.192,4.1953,4.1903,4.1947,4.1956,4.1886,4.1905,4.1886,4.1857,4.1861,4.1829,4.1834,4.1779,4.1774,4.1793,4.1761,4.181,4.1753,4.1759,4.176,4.1767,4.1913,4.1948,4.2045,4.1861,4.1863,4.1865,0,4.2042,4.2031,4.2077,4.2039,4.204,4.2058,4.2046,4.205,4.2027,4.2005,4.1997,4.195,4.197,4.191,4.1936,4.1899,4.1899,4.1883,4.1886,4.1884,4.1818,4.1915,4.2075,4.2089,4.1884,4.1883,4.1881,0,4.2163,4.2161,4.2188,4.218,4.2135,4.215,4.2132,4.2106,4.2104,4.2094,4.2092,4.2085,4.2081,4.2077,4.2031,4.1992,4.2063,4.1999,4.2045,4.2047,4.2063,4.2062,4.2224,4.2064,4.2064,4.2064,4.2064,0,4.228,4.2311,4.2241,4.2258,4.2291,4.2234,4.2268,4.2243,4.2221,4.2232,4.2172,4.2185,4.2122,4.2128,4.2092,4.212,4.2119,4.2101,4.2091,4.2106,4.2109,4.2105,4.2097,4.2068,4.2067,4.2066,4.2065,0,4.242,4.2375,4.24,4.2356,4.2346,4.2372,4.2335,4.2349,4.2318,4.2333,4.2333,4.2284,4.2287,4.2241,4.2236,4.2211,4.2256,4.2234,4.2263,4.2256,4.2305,4.2301,4.2469,4.2489,4.2318,4.2319,4.2321,0,4.2498,4.2519,4.2479,4.2482,4.2467,4.2473,4.2471,4.2416,4.2417,4.2393,4.241,4.2409,4.2405,4.2415,4.2378,4.2375,4.2352,4.2412,4.2351,4.2366,4.2353,4.2352,4.2354,4.2424,4.2426,4.2428,4.2429,0,4.264,4.2617,4.2615,4.2607,4.2606,4.2597,4.2584,4.2591,4.2531,4.2535,4.2538,4.2535,4.253,4.253,4.252,4.2502,4.2456,4.2449,4.2459,4.2474,4.249,4.2482,4.2297,4.2445,4.2443,4.2442,4.2441,4.2441,4.275,4.2767,4.2741,4.2742,4.2727,4.2716,4.2728,4.2698,4.2699,4.269,4.2659,4.2668,4.2645,4.2626,4.2613,4.262,4.2591,4.2606,4.261,4.2614,4.2623,4.249,4.2618,4.2617,4.2617,4.2617,4.2616,0,4.2889,4.287,4.2871,4.2855,4.2857,4.2814,4.2797,4.2802,4.281,4.2793,4.279,4.2795,4.2795,4.2759,4.2755,4.2768,4.2747,4.2768,4.2767,4.2763,4.2649,4.2641,4.2785,4.2785,4.2785,4.2785,4.2785,4.2785,4.2962,4.2988,4.2962,4.298,4.296,4.2968,4.2963,4.2953,4.2939,4.2946,4.2946,4.2923,4.2899,4.2893,4.2891,4.2881,4.2882,4.2911,4.2894,4.2788,4.2771,4.2756,4.2747,4.2912,4.2912,4.3007,4.3008,4.3009]}]]